Location: Champseau
(45.8333°N, 1.7667°E)
Time: 17:00:01
(UTC+00:00)

Cosmos 2227 Rocket - Pass Details

Date: 18 April 2021
Orbit: 840 x 844 km, 71.0° (Epoch: 12 May)

Event Time Altitude Azimuth Distance (km) Brightness Sun altitude
Exits shadow 19:57:10 16° 105° (ESE) 2,066 3.6 -12.5°
Maximum altitude 19:57:44 16° 98° (E) 2,054 3.7 -12.6°
Drops below altitude 10° 20:01:05 10° 61° (ENE) 2,468 4.3 -13.1°
Sets 20:04:26 0° 42° (NE) 3,408 5.3 -13.6°
